DRAGON CRS-19 DEB

Last updated on Dec. 14, 2019, 12:02 a.m. UTC

1 44823U 19083C   19346.87440336  .14404158  12473-4  10420-2 0  9997
2 44823  51.6433 192.8972 0022509  72.4350 288.9161 16.38638870  1154

Satellite is not in orbit.